Current weather by "City, St" or "zip code"  
 
Advertise Here

Current Conditions: Hobart, Hobart Municipal Airport, OK

Fair


79.0 F

Last Updated on Sep 16 2021, 10:53 pm CDT
Humidity: 54%
Wind Speed: S 16.1 mph
Barometer 29.93 in
Dewpoint: 61.0 F
Visibility: 10.00 mi
Precip: --
Heat Index: NA
Wind Chill: NA
Current conditions at:

Hobart, Hobart Municipal Airport, OK (KHBR)

Lat: 34.98944 Lon: 99.0525

Local Radar Image active severe weather and emergency alerts image image weather storm and storm spotter reports image weather observation monitoring service image
Local
Radar
Active
Alerts
Storm Reports Obs
Monitoring

Sign-up For Email & Text Message Weather Alert Notification Services



Advertise Here

Observation History for Hobart, Hobart Municipal Airport, OK


Time Wind
(mph)
Vis
(mi)
Weather Precip (in) Temperature (F) Relative
Humidity
Wind
Chill
(F)
Heat
Index
(F)
Pressure
Air Dwpt altimeter
(in)
sea level
(mb)
Rmks
10:53 pm CDT S 16.1 10.00 Fair -- 79.0 61.0 54% NA NA 29.93 1011.5
9:53 pm CDT S 11.5 10.00 Fair -- 81.0 61.0 51% NA 82 29.93 1011.4
8:53 pm CDT SE 9.2 10.00 Fair -- 81.0 60.1 49% NA 82 29.91 1010.9
7:53 pm CDT SE 8.1 10.00 Fair -- 85.0 59.0 42% NA 85 29.89 1010.4
6:53 pm CDT S 16.1 10.00 A Few Clouds -- 89.0 59.0 36% NA 88 29.88 1010.0
5:53 pm CDT S 13.8 10.00 Fair -- 91.0 57.9 33% NA 90 29.87 1009.6
4:53 pm CDT S 16.1 G 21.9 10.00 Fair -- 91.0 57.9 33% NA 90 29.88 1009.8
3:53 pm CDT S 10.4 G 20.7 10.00 Partly Cloudy -- 91.0 59.0 34% NA 90 29.89 1010.2
2:53 pm CDT S 10.4 G 27.6 10.00 A Few Clouds -- 91.0 60.1 35% NA 91 29.91 1010.8
1:53 pm CDT S 12.7 G 20.7 10.00 A Few Clouds -- 90.0 60.1 37% NA 90 29.93 1011.7
12:53 pm CDT S 13.8 G 31.1 10.00 Fair -- 89.0 61.0 39% NA 89 29.96 1012.4
11:53 am CDT S 11.5 10.00 Fair -- 87.0 62.1 43% NA 87 29.98 1013.4
10:53 am CDT SW 12.7 10.00 Fair -- 83.0 62.1 49% NA 84 29.99 1013.7
9:53 am CDT SW 8.1 10.00 Fair -- 78.0 63.0 60% NA NA 29.99 1013.8
8:53 am CDT N 0.0 10.00 Fair -- 72.0 63.0 73% NA NA 29.99 1013.8
7:53 am CDT N 0.0 10.00 A Few Clouds -- 70.0 63.0 79% NA NA 29.97 1013.3
6:53 am CDT SW 3.5 10.00 Fair -- 67.0 61.0 81% NA NA 29.95 1012.5
5:53 am CDT SE 5.8 10.00 Fair -- 68.0 62.1 81% NA NA 29.95 1012.2
4:53 am CDT N 0.0 10.00 Fair -- 69.0 61.0 76% NA NA 29.95 1012.1
3:53 am CDT SE 3.5 10.00 Fair -- 69.0 61.0 76% NA NA 29.95 1012.1
2:53 am CDT SE 4.6 10.00 Mostly Cloudy -- 70.0 62.1 76% NA NA 29.95 1012.3
1:53 am CDT S 5.8 10.00 Fair -- 70.0 62.1 76% NA NA 29.95 1012.4
12:53 am CDT SE 6.9 10.00 Fair -- 72.0 62.1 71% NA NA 29.96 1012.8
11:53 pm CDT S 8.1 10.00 Fair -- 73.0 61.0 66% NA NA 29.96 1012.9

Regional Weather Observation


Elk City Regional Business Airport, OK (KELK)

Fair
76.0 F

Hobart, Hobart Municipal Airport, OK (KHBR)

Fair
79.0 F

Clinton, Clinton Regional Airport, OK (KCLK)

Fair
75.0 F

Altus, Altus/Quartz Mountain Regional Airport, OK (KAXS)

Fair
79.0 F

Altus Air Force Base, OK (KLTS)

Fair
77.0 F

Weatherford, Thomas P Stafford Airport, OK (KOJA)

Fair
76.0 F
Advertise Here


Advertise Here